Regional Weather Roundup
Issued by NWS

Home | Current Version | Previous Version | Text Only | Print | Product List | Glossary On
Versions: 1 2 3 4 5 6 7 8 9 10 11 12 13 14 15 16 17 18 19 20 21 22 23 24 25 26 27 28 29 30 31 32 33 34 35 36 37 38 39 40 41 42 43 44 45 46 47 48 49 50
000
ASUS45 KABQ 051210
RWRNM
NEW MEXICO REGIONAL WEATHER ROUNDUP
NATIONAL WEATHER SERVICE ALBUQUERQUE NM
600 AM MDT THU MAY 05 2016

NOTE: "FAIR" MEANS FEW OR NO CLOUDS BELOW 12,000 FEET AGL WITH NO
       SIGNIFICANT WEATHER OR OBSTRUCTIONS TO VISION.

      THIS PRODUCT IS RELEASED AS TWO VERSIONS.  ONE VERSION NEAR
      THE TOP OF THE HOUR CONTAINING PRELIMINARY DATA FROM ALBUQUERQUE
      AND OTHER STATIONS.  A FINAL VERSION WITH ADDITIONAL DATA IS
      ISSUED ABOUT 10 MINUTES AFTER THE HOUR.

NMZ501-503-504-510>518-051300-
NORTHWEST PLATEAU/NORTHCENTRAL MOUNTAINS

CITY           SKY/WX    TMP DP  RH WIND       PRES   REMARKS
FARMINGTON     FAIR      50  28  42 E12       30.15S
6HR MIN TEMP:  49; 6HR MAX TEMP:  61;

LOS ALAMOS     FAIR      52 -18   5 SE3       30.29S
SANTA FE       FAIR      44  21  40 N7        30.24R
6HR MIN TEMP:  41; 6HR MAX TEMP:  55;

TAOS           FAIR      36  23  60 N6        30.30S WCI  31
ANGEL FIRE     FAIR      23  21  92 CALM      30.38S

$$
NMZ402-403-502-505>509-051300-
WESTCENTRAL MOUNTAINS/SOUTHWEST MOUNTAINS

CITY           SKY/WX    TMP DP  RH WIND       PRES   REMARKS
GALLUP         FAIR      44  32  62 CALM      30.20S
6HR MIN TEMP:  44; 6HR MAX TEMP:  62;

GRANTS         FAIR      35  29  78 CALM      30.24S
SILVER CITY      N/A     54  19  26 NE7       30.17S

$$
NMZ407-409-411-412-051300-
SOUTHERN DESERTS

CITY           SKY/WX    TMP DP  RH WIND       PRES   REMARKS
LORDSBURG      FAIR      61  21  21 SE15      30.06S
DEMING         FAIR      57  21  24 NE13      30.09F
6HR MIN TEMP:  57; 6HR MAX TEMP:  65;

LAS CRUCES     FAIR      61  19  20 SE8       30.12S
HOLLOMAN AFB   FAIR      52  20  28 N3        30.12S
ALAMOGORDO     FAIR      52  19  28 NE8       30.14S
T OR C         FAIR      52  23  32 W8        30.14S
6HR MIN TEMP:  52; 6HR MAX TEMP:  63;


$$
NMZ519>523-051300-
CENTRAL VALLEYS/CENTRAL HIGHLANDS

CITY           SKY/WX    TMP DP  RH WIND       PRES   REMARKS
ALBUQUERQUE    FAIR      54  24  31 N10       30.19S
6HR MIN TEMP:  54; 6HR MAX TEMP:  63;

DOUBLE EAGLE   CLEAR     43  25  49 NW3       30.22S
MORIARTY ARPT  FAIR      32  20  61 CALM      30.25F
6HR MIN TEMP:  29; 6HR MAX TEMP:  40;

CLINES CORNERS FAIR      43  20  39 W12       30.25F
6HR MIN TEMP:  42; 6HR MAX TEMP:  52;

BELEN          FAIR      46  23  41 NE3       30.18S
6HR MIN TEMP:  43; 6HR MAX TEMP:  59;

SOCORRO        FAIR      49  21  33 S6        30.15S
6HR MIN TEMP:  49; 6HR MAX TEMP:  59;


$$
NMZ524>526-539-540-051300-
SOUTHCENTRAL MOUNTAINS

CITY           SKY/WX    TMP DP  RH WIND       PRES   REMARKS
RUIDOSO          N/A     48  19  32 CALM      30.29F

$$
NMZ527>531-051300-
NORTHEAST HIGHLANDS/NORTHEAST PLAINS

CITY           SKY/WX    TMP DP  RH WIND       PRES   REMARKS
LAS VEGAS      FAIR      41  26  55 NE6       30.27R
6HR MIN TEMP:  36; 6HR MAX TEMP:  48;

RATON          FAIR      34  28  79 E6        30.22S WCI  29
6HR MIN TEMP:  34; 6HR MAX TEMP:  51;

CLAYTON        FAIR      50  31  48 W12       30.14S
6HR MIN TEMP:  47; 6HR MAX TEMP:  54;


$$
NMZ532>537-051300-
EASTCENTRAL PLAINS

CITY           SKY/WX    TMP DP  RH WIND       PRES   REMARKS
TUCUMCARI      FAIR      44  33  65 W6        30.13S
6HR MIN TEMP:  44; 6HR MAX TEMP:  54;

CANNON AFB     CLEAR     47  30  51 W5        30.15S
6HR MIN TEMP:  45; 6HR MAX TEMP:  60;

CLOVIS AIRPORT FAIR      43  30  61 NW3       30.16F

$$
NMZ028-029-538-051300-
SOUTHEAST PLAINS

CITY           SKY/WX    TMP DP  RH WIND       PRES   REMARKS
ROSWELL        FAIR      48  25  40 W5        30.13S
6HR MIN TEMP:  46; 6HR MAX TEMP:  60;

ARTESIA        FAIR      48  23  37 NW8       30.14R
CARLSBAD       FAIR      46  26  45 W8        30.12R
6HR MIN TEMP:  46; 6HR MAX TEMP:  60;

HOBBS          CLEAR     45  27  49 N6        30.15S


$$



USA.gov is the U.S. government's official web portal to all federal, state and local government web resources and services.